This is the latest recevied weather packets stored in our database for station/object EB1BCG-1. If no packets are shown the sender has not sent any weather packets the latest 10 day(s).
| Time | Temp. | Humidity | Pressure | Rain* | Wind** | Luminosity | Snow |
|---|---|---|---|---|---|---|---|
| 1777305704 | 22.78° C | 45% | 1013.6 hPa | 0 mm | 0 m/s | - | - |
| 1777305098 | 22.78° C | 45% | 1013.7 hPa | 0 mm | 0 m/s | - | - |
| 1777304491 | 23.89° C | 46% | 1013.8 hPa | 0 mm | 0 m/s | - | - |
| 1777303885 | 21.67° C | 45% | 1013.9 hPa | 0 mm | 0 m/s | - | - |
| 1777303278 | 21.67° C | 46% | 1014.1 hPa | 0 mm | 0 m/s | - | - |
| 1777302672 | 22.22° C | 45% | 1014.1 hPa | 0 mm | 0 m/s | - | - |
| 1777302070 | 23.33° C | 42% | 1014.3 hPa | 0 mm | 0 m/s | - | - |
| 1777301459 | 24.44° C | 41% | 1014.3 hPa | 0 mm | 0 m/s | - | - |
| 1777300852 | 23.33° C | 40% | 1014.5 hPa | 0 mm | 0 m/s | - | - |
| 1777300251 | 23.33° C | 40% | 1014.6 hPa | 0 mm | 0 m/s | - | - |
| 1777299640 | 23.89° C | 38% | 1014.6 hPa | 0 mm | 0 m/s | - | - |
| 1777299034 | 25.56° C | 42% | 1014.8 hPa | 0 mm | 0 m/s | - | - |
| 1777298430 | 27.78° C | 42% | 1014.9 hPa | 0 mm | 0 m/s | - | - |
| 1777297821 | 25.56° C | 37% | 1015 hPa | 0 mm | 0 m/s | - | - |
| 1777297215 | 26.67° C | 40% | 1015.2 hPa | 0 mm | 0 m/s | - | - |
| 1777296610 | 28.89° C | 42% | 1015.3 hPa | 0 mm | 0 m/s | - | - |
| 1777296002 | 28.89° C | 42% | 1015.5 hPa | 0 mm | 0 m/s | - | - |
| 1777295395 | 28.33° C | 39% | 1015.6 hPa | 0 mm | 0 m/s | - | - |
| 1777294790 | 28.89° C | 39% | 1015.7 hPa | 0 mm | 0 m/s | - | - |
| 1777294188 | 28.33° C | 41% | 1015.8 hPa | 0 mm | 0 m/s | - | - |
| 1777293576 | 28.89° C | 40% | 1015.9 hPa | 0 mm | 0 m/s | - | - |
| 1777292970 | 27.22° C | 42% | 1016.1 hPa | 0 mm | 0 m/s | - | - |
| 1777292362 | 26.67° C | 41% | 1016.3 hPa | 0 mm | 0 m/s | - | - |
| 1777291755 | 27.78° C | 41% | 1016.4 hPa | 0 mm | 0 m/s | - | - |
| 1777291150 | 26.67° C | 44% | 1016.6 hPa | 0 mm | 0 m/s | - | - |
* Rain latest hour (hover to see other rain measurements)
** Current wind speed in m/s (hover to see current wind gust speed)